Time,TemperatureF,DewpointF,PressureIn,WindDirection,WindDirectionDegrees,WindSpeedMPH,WindSpeedGustMPH,Humidity,HourlyPrecipIn,Conditions,Clouds,dailyrainin,SoftwareType,DateUTC
2013-05-26 00:01:00,51.0,34.0,30.08,NE,37,6.0,8.0,52,0.00,,,0.02,Wunderground v.1.15,2013-05-26 04:01:00,
2013-05-26 00:02:00,51.0,34.0,30.08,NNE,30,6.0,8.0,52,0.00,,,0.02,Wunderground v.1.15,2013-05-26 04:02:00,
2013-05-26 00:05:00,51.0,34.5,30.08,NNE,25,6.0,9.0,53,0.00,,,0.02,Wunderground v.1.15,2013-05-26 04:05:00,
2013-05-26 00:09:00,51.1,34.1,30.08,NNE,28,6.0,9.0,52,0.00,,,0.02,Wunderground v.1.15,2013-05-26 04:09:00,
2013-05-26 00:10:00,51.1,34.1,30.08,North,10,6.0,6.0,52,0.00,,,0.02,Wunderground v.1.15,2013-05-26 04:10:00,
2013-05-26 00:16:00,51.1,34.1,30.08,North,360,5.0,8.0,52,0.00,,,0.02,Wunderground v.1.15,2013-05-26 04:16:00,
2013-05-26 00:21:00,51.2,34.2,30.08,North,5,6.0,7.0,52,0.00,,,0.02,Wunderground v.1.15,2013-05-26 04:21:00,
2013-05-26 00:26:00,51.1,34.1,30.08,NNE,13,6.0,8.0,52,0.00,,,0.02,Wunderground v.1.15,2013-05-26 04:26:00,
2013-05-26 00:32:00,51.1,34.1,30.08,North,5,6.0,6.0,52,0.00,,,0.02,Wunderground v.1.15,2013-05-26 04:32:00,
2013-05-26 00:37:00,51.2,33.7,30.08,NNE,22,6.0,6.0,51,0.00,,,0.00,Wunderground v.1.15,2013-05-26 04:37:00,
2013-05-26 00:43:00,51.3,33.8,30.08,NNE,20,6.0,7.0,51,0.00,,,0.00,Wunderground v.1.15,2013-05-26 04:43:00,
2013-05-26 00:49:00,51.2,33.7,30.08,NNE,13,6.0,11.0,51,0.00,,,0.00,Wunderground v.1.15,2013-05-26 04:49:00,
2013-05-26 00:54:00,51.1,34.1,30.08,NNW,346,6.0,6.0,52,0.00,,,0.00,Wunderground v.1.15,2013-05-26 04:54:00,
2013-05-26 00:59:00,50.9,34.4,30.08,NNW,340,5.0,6.0,53,0.00,,,0.00,Wunderground v.1.15,2013-05-26 04:59:00,
2013-05-26 01:04:00,50.7,34.6,30.08,NNW,335,5.0,8.0,54,0.00,,,0.00,Wunderground v.1.15,2013-05-26 05:04:00,
2013-05-26 01:10:00,50.6,33.6,30.08,NNW,346,7.0,9.0,52,0.00,,,0.00,Wunderground v.1.15,2013-05-26 05:10:00,
2013-05-26 01:15:00,50.8,34.7,30.08,NNW,342,8.0,10.0,54,0.00,,,0.00,Wunderground v.1.15,2013-05-26 05:15:00,
2013-05-26 01:21:00,50.8,34.7,30.08,NNW,348,7.0,8.0,54,0.00,,,0.00,Wunderground v.1.15,2013-05-26 05:21:00,
2013-05-26 01:26:00,50.6,34.6,30.08,NNW,344,6.0,8.0,54,0.00,,,0.00,Wunderground v.1.15,2013-05-26 05:26:00,
2013-05-26 01:32:00,50.6,34.6,30.08,North,355,6.0,10.0,54,0.00,,,0.00,Wunderground v.1.15,2013-05-26 05:32:00,
2013-05-26 01:37:00,50.5,34.5,30.08,NNW,338,7.0,10.0,54,0.00,,,0.00,Wunderground v.1.15,2013-05-26 05:37:00,
2013-05-26 01:42:00,50.5,34.5,30.08,NNW,337,7.0,9.0,54,0.00,,,0.00,Wunderground v.1.15,2013-05-26 05:42:00,
2013-05-26 01:47:00,50.6,34.6,30.07,NW,325,8.0,9.0,54,0.00,,,0.00,Wunderground v.1.15,2013-05-26 05:47:00,
2013-05-26 01:53:00,50.6,34.6,30.07,NNW,342,8.0,10.0,54,0.00,,,0.00,Wunderground v.1.15,2013-05-26 05:53:00,
2013-05-26 02:02:00,50.6,35.0,30.07,NW,326,8.0,9.0,55,0.00,,,0.00,Wunderground v.1.15,2013-05-26 06:02:00,
2013-05-26 02:07:00,50.5,34.9,30.07,NNW,348,8.0,9.0,55,0.00,,,0.00,Wunderground v.1.15,2013-05-26 06:07:00,
2013-05-26 02:13:00,50.5,34.9,30.07,North,351,8.0,9.0,55,0.00,,,0.00,Wunderground v.1.15,2013-05-26 06:13:00,
2013-05-26 02:18:00,50.5,35.4,30.07,North,351,8.0,11.0,56,0.00,,,0.00,Wunderground v.1.15,2013-05-26 06:18:00,
2013-05-26 02:24:00,50.4,35.3,30.07,NNW,333,8.0,14.0,56,0.00,,,0.00,Wunderground v.1.15,2013-05-26 06:24:00,
2013-05-26 02:29:00,50.3,35.6,30.07,NNW,340,8.0,14.0,57,0.00,,,0.00,Wunderground v.1.15,2013-05-26 06:29:00,
2013-05-26 02:35:00,50.2,35.5,30.07,NNW,341,8.0,11.0,57,0.00,,,0.00,Wunderground v.1.15,2013-05-26 06:35:00,
2013-05-26 02:41:00,50.3,35.6,30.07,NNW,331,8.0,8.0,57,0.00,,,0.00,Wunderground v.1.15,2013-05-26 06:41:00,
2013-05-26 02:47:00,50.2,35.5,30.07,North,11,8.0,8.0,57,0.00,,,0.00,Wunderground v.1.15,2013-05-26 06:47:00,
2013-05-26 02:52:00,50.1,35.9,30.07,North,355,8.0,8.0,58,0.00,,,0.00,Wunderground v.1.15,2013-05-26 06:52:00,
2013-05-26 03:01:00,50.1,35.9,30.07,NNW,344,7.0,8.0,58,0.00,,,0.00,Wunderground v.1.15,2013-05-26 07:01:00,
2013-05-26 03:07:00,50.0,35.4,30.07,NNW,336,8.0,8.0,57,0.00,,,0.00,Wunderground v.1.15,2013-05-26 07:07:00,
2013-05-26 03:13:00,49.9,35.7,30.07,NW,322,7.0,9.0,58,0.00,,,0.00,Wunderground v.1.15,2013-05-26 07:13:00,
2013-05-26 03:19:00,49.9,35.7,30.07,NW,316,7.0,10.0,58,0.00,,,0.00,Wunderground v.1.15,2013-05-26 07:19:00,
2013-05-26 03:25:00,49.8,36.0,30.07,NNW,327,8.0,11.0,59,0.00,,,0.00,Wunderground v.1.15,2013-05-26 07:25:00,
2013-05-26 03:32:00,49.6,36.3,30.07,NNW,328,8.0,8.0,60,0.00,,,0.00,Wunderground v.1.15,2013-05-26 07:32:00,
2013-05-26 03:37:00,49.4,36.1,30.07,NNW,338,8.0,10.0,60,0.00,,,0.00,Wunderground v.1.15,2013-05-26 07:37:00,
2013-05-26 03:43:00,49.3,36.4,30.07,NNW,345,8.0,10.0,61,0.00,,,0.00,Wunderground v.1.15,2013-05-26 07:43:00,
2013-05-26 03:48:00,49.2,35.9,30.07,NNW,344,8.0,10.0,60,0.00,,,0.00,Wunderground v.1.15,2013-05-26 07:48:00,
2013-05-26 03:54:00,49.2,36.3,30.07,NW,315,8.0,9.0,61,0.00,,,0.00,Wunderground v.1.15,2013-05-26 07:54:00,
2013-05-26 03:59:00,49.2,36.3,30.08,NNW,331,8.0,14.0,61,0.00,,,0.00,Wunderground v.1.15,2013-05-26 07:59:00,
2013-05-26 04:05:00,49.1,36.6,30.07,NNW,333,8.0,8.0,62,0.00,,,0.00,Wunderground v.1.15,2013-05-26 08:05:00,
2013-05-26 04:11:00,48.9,36.4,30.07,NNW,341,7.0,10.0,62,0.00,,,0.00,Wunderground v.1.15,2013-05-26 08:11:00,
2013-05-26 04:17:00,48.7,36.7,30.08,NNW,334,7.0,10.0,63,0.00,,,0.00,Wunderground v.1.15,2013-05-26 08:17:00,
2013-05-26 04:22:00,48.6,37.0,30.08,NW,323,6.0,7.0,64,0.00,,,0.00,Wunderground v.1.15,2013-05-26 08:22:00,
2013-05-26 04:27:00,48.4,36.8,30.08,NNW,333,6.0,11.0,64,0.00,,,0.00,Wunderground v.1.15,2013-05-26 08:27:00,
2013-05-26 04:33:00,48.2,37.0,30.08,NNW,331,7.0,12.0,65,0.00,,,0.00,Wunderground v.1.15,2013-05-26 08:33:00,
2013-05-26 04:38:00,48.2,37.0,30.08,NNW,331,7.0,12.0,65,0.00,,,0.00,Wunderground v.1.15,2013-05-26 08:38:00,
2013-05-26 04:44:00,48.1,36.9,30.08,NW,326,6.0,7.0,65,0.00,,,0.00,Wunderground v.1.15,2013-05-26 08:44:00,
2013-05-26 04:51:00,47.9,37.1,30.09,NNW,340,6.0,6.0,66,0.00,,,0.00,Wunderground v.1.15,2013-05-26 08:51:00,
2013-05-26 04:56:00,47.7,37.3,30.09,NW,317,6.0,8.0,67,0.00,,,0.00,Wunderground v.1.15,2013-05-26 08:56:00,
2013-05-26 05:02:00,47.5,37.1,30.09,NNW,329,7.0,9.0,67,0.00,,,0.00,Wunderground v.1.15,2013-05-26 09:02:00,
2013-05-26 05:07:00,47.4,37.0,30.09,NW,318,7.0,9.0,67,0.00,,,0.00,Wunderground v.1.15,2013-05-26 09:07:00,
2013-05-26 05:13:00,47.3,36.9,30.09,NW,321,7.0,7.0,67,0.00,,,0.00,Wunderground v.1.15,2013-05-26 09:13:00,
2013-05-26 05:19:00,47.2,36.8,30.09,NW,321,8.0,11.0,67,0.00,,,0.00,Wunderground v.1.15,2013-05-26 09:19:00,
2013-05-26 05:25:00,47.2,36.8,30.09,NNW,334,8.0,8.0,67,0.00,,,0.00,Wunderground v.1.15,2013-05-26 09:25:00,
2013-05-26 05:32:00,47.3,36.9,30.09,NNW,337,7.0,9.0,67,0.00,,,0.00,Wunderground v.1.15,2013-05-26 09:32:00,
2013-05-26 05:37:00,47.4,37.0,30.09,NNW,341,7.0,10.0,67,0.00,,,0.00,Wunderground v.1.15,2013-05-26 09:37:00,
2013-05-26 05:43:00,47.4,37.0,30.10,NNW,342,7.0,11.0,67,0.00,,,0.00,Wunderground v.1.15,2013-05-26 09:43:00,
2013-05-26 05:49:00,47.3,37.3,30.10,NNW,330,7.0,11.0,68,0.00,,,0.00,Wunderground v.1.15,2013-05-26 09:49:00,
2013-05-26 05:54:00,47.3,37.3,30.10,NNW,337,7.0,11.0,68,0.00,,,0.00,Wunderground v.1.15,2013-05-26 09:54:00,
2013-05-26 06:01:00,47.1,37.4,30.10,NNW,333,8.0,8.0,69,0.00,,,0.00,Wunderground v.1.15,2013-05-26 10:01:00,
2013-05-26 06:07:00,47.1,37.4,30.10,NNW,331,8.0,11.0,69,0.00,,,0.00,Wunderground v.1.15,2013-05-26 10:07:00,
2013-05-26 06:13:00,47.2,37.5,30.10,NW,326,8.0,11.0,69,0.00,,,0.00,Wunderground v.1.15,2013-05-26 10:13:00,
2013-05-26 06:19:00,47.2,37.9,30.11,NNW,333,8.0,11.0,70,0.00,,,0.00,Wunderground v.1.15,2013-05-26 10:19:00,
2013-05-26 06:24:00,47.2,37.9,30.11,NW,318,7.0,9.0,70,0.00,,,0.00,Wunderground v.1.15,2013-05-26 10:24:00,
2013-05-26 06:31:00,47.2,37.5,30.11,NW,323,8.0,9.0,69,0.00,,,0.00,Wunderground v.1.15,2013-05-26 10:31:00,
2013-05-26 06:37:00,47.4,37.7,30.12,NNW,336,8.0,10.0,69,0.00,,,0.00,Wunderground v.1.15,2013-05-26 10:37:00,
2013-05-26 06:42:00,47.5,37.8,30.12,NW,325,8.0,9.0,69,0.00,,,0.00,Wunderground v.1.15,2013-05-26 10:42:00,
2013-05-26 06:48:00,47.6,38.3,30.12,NNW,330,8.0,10.0,70,0.00,,,0.00,Wunderground v.1.15,2013-05-26 10:48:00,
2013-05-26 06:54:00,47.8,38.1,30.12,NNW,336,8.0,11.0,69,0.00,,,0.00,Wunderground v.1.15,2013-05-26 10:54:00,
2013-05-26 07:01:00,48.1,38.4,30.13,NNW,327,9.0,11.0,69,0.00,,,0.00,Wunderground v.1.15,2013-05-26 11:01:00,
2013-05-26 07:07:00,48.2,38.5,30.13,North,350,9.0,11.0,69,0.00,,,0.00,Wunderground v.1.15,2013-05-26 11:07:00,
2013-05-26 07:12:00,48.4,38.3,30.12,NNW,327,9.0,9.0,68,0.00,,,0.00,Wunderground v.1.15,2013-05-26 11:12:00,
2013-05-26 07:18:00,48.6,38.5,30.12,North,350,9.0,12.0,68,0.00,,,0.00,Wunderground v.1.15,2013-05-26 11:18:00,
2013-05-26 07:24:00,48.8,38.3,30.12,NNW,344,8.0,9.0,67,0.00,,,0.00,Wunderground v.1.15,2013-05-26 11:24:00,
2013-05-26 07:29:00,49.0,38.9,30.12,North,351,8.0,9.0,68,0.00,,,0.00,Wunderground v.1.15,2013-05-26 11:29:00,
2013-05-26 07:34:00,49.2,38.3,30.12,North,355,8.0,11.0,66,0.00,,,0.00,Wunderground v.1.15,2013-05-26 11:34:00,
2013-05-26 07:39:00,49.4,38.5,30.13,NNW,338,8.0,11.0,66,0.00,,,0.00,Wunderground v.1.15,2013-05-26 11:39:00,
2013-05-26 07:45:00,49.6,39.1,30.12,NNE,28,9.0,9.0,67,0.00,,,0.00,Wunderground v.1.15,2013-05-26 11:45:00,
2013-05-26 07:51:00,49.7,39.2,30.13,NNE,22,9.0,10.0,67,0.00,,,0.00,Wunderground v.1.15,2013-05-26 11:51:00,
2013-05-26 07:56:00,49.9,39.0,30.12,NNW,348,9.0,10.0,66,0.00,,,0.00,Wunderground v.1.15,2013-05-26 11:56:00,
2013-05-26 08:01:00,50.1,38.8,30.12,NNW,332,8.0,9.0,65,0.00,,,0.00,Wunderground v.1.15,2013-05-26 12:01:00,
2013-05-26 08:07:00,50.2,38.9,30.12,NNW,347,9.0,12.0,65,0.00,,,0.00,Wunderground v.1.15,2013-05-26 12:07:00,
2013-05-26 08:12:00,50.5,39.2,30.13,North,355,9.0,9.0,65,0.00,,,0.00,Wunderground v.1.15,2013-05-26 12:12:00,
2013-05-26 08:17:00,50.7,39.4,30.13,NNW,343,8.0,11.0,65,0.00,,,0.00,Wunderground v.1.15,2013-05-26 12:17:00,
2013-05-26 08:22:00,50.9,39.5,30.13,NNW,331,8.0,13.0,65,0.00,,,0.00,Wunderground v.1.15,2013-05-26 12:22:00,
2013-05-26 08:28:00,51.2,39.8,30.13,North,5,9.0,13.0,65,0.00,,,0.00,Wunderground v.1.15,2013-05-26 12:28:00,
2013-05-26 08:34:00,51.4,40.4,30.13,NNW,342,8.0,13.0,66,0.00,,,0.00,Wunderground v.1.15,2013-05-26 12:34:00,
2013-05-26 08:39:00,51.8,40.4,30.13,NNE,26,8.0,13.0,65,0.00,,,0.00,Wunderground v.1.15,2013-05-26 12:39:00,
2013-05-26 08:44:00,52.0,40.2,30.13,NNW,336,8.0,13.0,64,0.00,,,0.00,Wunderground v.1.15,2013-05-26 12:44:00,
2013-05-26 08:51:00,52.3,39.7,30.13,North,355,8.0,8.0,62,0.00,,,0.00,Wunderground v.1.15,2013-05-26 12:51:00,
2013-05-26 08:56:00,52.4,39.3,30.13,NNW,347,8.0,10.0,61,0.00,,,0.00,Wunderground v.1.15,2013-05-26 12:56:00,
2013-05-26 09:01:00,52.5,38.6,30.13,North,360,8.0,8.0,59,0.00,,,0.00,Wunderground v.1.15,2013-05-26 13:01:00,
2013-05-26 09:07:00,52.6,40.4,30.13,NNE,13,9.0,11.0,63,0.00,,,0.00,Wunderground v.1.15,2013-05-26 13:07:00,
2013-05-26 09:12:00,53.1,40.4,30.13,North,360,7.0,8.0,62,0.00,,,0.00,Wunderground v.1.15,2013-05-26 13:12:00,
2013-05-26 09:18:00,53.6,40.9,30.13,North,5,7.0,10.0,62,0.00,,,0.00,Wunderground v.1.15,2013-05-26 13:18:00,
2013-05-26 09:24:00,53.5,39.9,30.13,NNE,15,8.0,12.0,60,0.00,,,0.00,Wunderground v.1.15,2013-05-26 13:24:00,
2013-05-26 09:29:00,53.7,40.1,30.13,NNW,339,9.0,13.0,60,0.00,,,0.00,Wunderground v.1.15,2013-05-26 13:29:00,
2013-05-26 09:34:00,53.9,39.9,30.13,North,10,9.0,10.0,59,0.00,,,0.00,Wunderground v.1.15,2013-05-26 13:34:00,
2013-05-26 09:40:00,54.3,40.7,30.13,NNE,15,8.0,14.0,60,0.00,,,0.00,Wunderground v.1.15,2013-05-26 13:40:00,
2013-05-26 09:45:00,54.6,41.0,30.13,NW,317,8.0,18.0,60,0.00,,,0.00,Wunderground v.1.15,2013-05-26 13:45:00,
2013-05-26 09:51:00,54.8,39.4,30.13,NNE,15,10.0,10.0,56,0.00,,,0.00,Wunderground v.1.15,2013-05-26 13:51:00,
2013-05-26 09:56:00,55.3,38.4,30.12,NNW,336,10.0,15.0,53,0.00,,,0.00,Wunderground v.1.15,2013-05-26 13:56:00,
2013-05-26 10:02:00,55.5,39.1,30.12,NNE,31,10.0,13.0,54,0.00,,,0.00,Wunderground v.1.15,2013-05-26 14:02:00,
2013-05-26 10:08:00,55.8,38.9,30.12,North,355,11.0,15.0,53,0.00,,,0.00,Wunderground v.1.15,2013-05-26 14:08:00,
2013-05-26 10:13:00,55.9,39.0,30.12,NNW,330,10.0,15.0,53,0.00,,,0.00,Wunderground v.1.15,2013-05-26 14:13:00,
2013-05-26 10:18:00,56.2,38.3,30.12,NE,39,10.0,17.0,51,0.00,,,0.00,Wunderground v.1.15,2013-05-26 14:18:00,
2013-05-26 10:24:00,56.8,39.8,30.12,NNW,328,9.0,13.0,53,0.00,,,0.00,Wunderground v.1.15,2013-05-26 14:24:00,
2013-05-26 10:32:00,57.0,39.0,30.12,NNW,327,9.0,9.0,51,0.00,,,0.00,Wunderground v.1.15,2013-05-26 14:32:00,
2013-05-26 10:37:00,56.9,38.4,30.12,NNE,15,10.0,18.0,50,0.00,,,0.00,Wunderground v.1.15,2013-05-26 14:37:00,
2013-05-26 10:42:00,56.9,39.4,30.12,North,355,11.0,11.0,52,0.00,,,0.00,Wunderground v.1.15,2013-05-26 14:42:00,
2013-05-26 10:48:00,57.4,39.4,30.12,NNE,29,11.0,15.0,51,0.00,,,0.00,Wunderground v.1.15,2013-05-26 14:48:00,
2013-05-26 10:53:00,57.4,37.3,30.12,NNE,27,11.0,12.0,47,0.00,,,0.00,Wunderground v.1.15,2013-05-26 14:53:00,
2013-05-26 10:59:00,57.6,38.0,30.12,North,5,11.0,15.0,48,0.00,,,0.00,Wunderground v.1.15,2013-05-26 14:59:00,
2013-05-26 11:05:00,57.7,38.7,30.12,NNW,336,11.0,16.0,49,0.00,,,0.00,Wunderground v.1.15,2013-05-26 15:05:00,
2013-05-26 11:10:00,57.8,37.7,30.12,North,5,12.0,12.0,47,0.00,,,0.00,Wunderground v.1.15,2013-05-26 15:10:00,
2013-05-26 11:16:00,57.6,38.6,30.12,NW,325,12.0,17.0,49,0.00,,,0.00,Wunderground v.1.15,2013-05-26 15:16:00,
2013-05-26 11:22:00,57.9,38.8,30.12,NNE,24,12.0,12.0,49,0.00,,,0.00,Wunderground v.1.15,2013-05-26 15:22:00,
2013-05-26 11:28:00,58.2,39.6,30.11,North,355,10.0,13.0,50,0.00,,,0.00,Wunderground v.1.15,2013-05-26 15:28:00,
2013-05-26 11:33:00,58.6,39.5,30.11,North,5,10.0,10.0,49,0.00,,,0.00,Wunderground v.1.15,2013-05-26 15:33:00,
2013-05-26 11:38:00,58.5,38.9,30.11,NNE,15,11.0,20.0,48,0.00,,,0.00,Wunderground v.1.15,2013-05-26 15:38:00,
2013-05-26 11:43:00,58.6,39.0,30.11,North,355,12.0,14.0,48,0.00,,,0.00,Wunderground v.1.15,2013-05-26 15:43:00,
2013-05-26 11:50:00,59.0,38.2,30.11,NNW,345,11.0,11.0,46,0.00,,,0.00,Wunderground v.1.15,2013-05-26 15:50:00,
2013-05-26 11:55:00,59.3,39.1,30.11,NW,312,9.0,12.0,47,0.00,,,0.00,Wunderground v.1.15,2013-05-26 15:55:00,
2013-05-26 12:01:00,59.9,40.1,30.11,NW,321,11.0,19.0,48,0.00,,,0.00,Wunderground v.1.15,2013-05-26 16:01:00,
2013-05-26 12:06:00,60.0,39.1,30.12,North,350,12.0,22.0,46,0.00,,,0.00,Wunderground v.1.15,2013-05-26 16:06:00,
2013-05-26 12:12:00,60.0,38.0,30.11,North,350,9.0,11.0,44,0.00,,,0.00,Wunderground v.1.15,2013-05-26 16:12:00,
2013-05-26 12:17:00,60.1,38.7,30.11,North,355,9.0,16.0,45,0.00,,,0.00,Wunderground v.1.15,2013-05-26 16:17:00,
2013-05-26 12:23:00,60.1,36.3,30.12,NNE,19,11.0,20.0,41,0.00,,,0.00,Wunderground v.1.15,2013-05-26 16:23:00,
2013-05-26 12:29:00,60.2,39.3,30.11,NNW,342,11.0,20.0,46,0.00,,,0.00,Wunderground v.1.15,2013-05-26 16:29:00,
2013-05-26 12:35:00,60.8,39.9,30.12,NNW,344,8.0,14.0,46,0.00,,,0.00,Wunderground v.1.15,2013-05-26 16:35:00,
2013-05-26 12:41:00,60.9,38.2,30.12,NNW,333,9.0,10.0,43,0.00,,,0.00,Wunderground v.1.15,2013-05-26 16:41:00,
2013-05-26 12:47:00,61.4,39.3,30.11,NE,38,9.0,12.0,44,0.00,,,0.00,Wunderground v.1.15,2013-05-26 16:47:00,
2013-05-26 12:53:00,61.8,38.4,30.12,North,5,9.0,12.0,42,0.00,,,0.00,Wunderground v.1.15,2013-05-26 16:53:00,
2013-05-26 12:59:00,61.4,37.5,30.11,NW,309,11.0,17.0,41,0.00,,,0.00,Wunderground v.1.15,2013-05-26 16:59:00,
2013-05-26 13:05:00,61.4,38.1,30.11,NW,304,12.0,19.0,42,0.00,,,0.00,Wunderground v.1.15,2013-05-26 17:05:00,
2013-05-26 13:10:00,61.6,39.5,30.11,North,350,12.0,12.0,44,0.00,,,0.00,Wunderground v.1.15,2013-05-26 17:10:00,
2013-05-26 13:16:00,62.6,37.9,30.11,NNW,342,9.0,14.0,40,0.00,,,0.00,Wunderground v.1.15,2013-05-26 17:16:00,
2013-05-26 13:21:00,62.3,37.0,30.11,NNW,346,10.0,14.0,39,0.00,,,0.00,Wunderground v.1.15,2013-05-26 17:21:00,
2013-05-26 13:26:00,62.2,38.2,30.11,NNW,347,11.0,14.0,41,0.00,,,0.00,Wunderground v.1.15,2013-05-26 17:26:00,
2013-05-26 13:32:00,62.2,38.8,30.10,NW,312,10.0,11.0,42,0.00,,,0.00,Wunderground v.1.15,2013-05-26 17:32:00,
2013-05-26 13:37:00,62.4,39.0,30.10,NNW,329,12.0,14.0,42,0.00,,,0.00,Wunderground v.1.15,2013-05-26 17:37:00,
2013-05-26 13:43:00,62.8,38.1,30.10,North,5,11.0,12.0,40,0.00,,,0.00,Wunderground v.1.15,2013-05-26 17:43:00,
2013-05-26 13:49:00,63.0,38.9,30.10,NW,321,10.0,13.0,41,0.00,,,0.00,Wunderground v.1.15,2013-05-26 17:49:00,
2013-05-26 13:55:00,63.0,37.0,30.10,NE,44,11.0,14.0,38,0.00,,,0.00,Wunderground v.1.15,2013-05-26 17:55:00,
2013-05-26 14:02:00,63.3,38.6,30.10,NW,317,11.0,14.0,40,0.00,,,0.00,Wunderground v.1.15,2013-05-26 18:02:00,
2013-05-26 14:07:00,63.3,39.2,30.10,NNW,337,11.0,14.0,41,0.00,,,0.00,Wunderground v.1.15,2013-05-26 18:07:00,
2013-05-26 14:13:00,63.4,39.3,30.09,NE,49,10.0,12.0,41,0.00,,,0.00,Wunderground v.1.15,2013-05-26 18:13:00,
2013-05-26 14:18:00,63.8,39.6,30.10,North,10,9.0,13.0,41,0.00,,,0.00,Wunderground v.1.15,2013-05-26 18:18:00,
2013-05-26 14:24:00,64.0,39.8,30.09,North,11,10.0,11.0,41,0.00,,,0.00,Wunderground v.1.15,2013-05-26 18:24:00,
2013-05-26 14:29:00,64.2,38.7,30.09,North,5,10.0,13.0,39,0.00,,,0.00,Wunderground v.1.15,2013-05-26 18:29:00,
2013-05-26 14:35:00,64.0,38.5,30.09,NNW,347,9.0,14.0,39,0.00,,,0.00,Wunderground v.1.15,2013-05-26 18:35:00,
2013-05-26 14:41:00,64.3,38.1,30.08,NE,36,8.0,10.0,38,0.00,,,0.00,Wunderground v.1.15,2013-05-26 18:41:00,
2013-05-26 14:47:00,64.2,40.0,30.09,NNE,27,9.0,13.0,41,0.00,,,0.00,Wunderground v.1.15,2013-05-26 18:47:00,
2013-05-26 14:53:00,64.7,37.8,30.09,NNE,12,9.0,15.0,37,0.00,,,0.00,Wunderground v.1.15,2013-05-26 18:53:00,
2013-05-26 15:00:00,64.5,38.3,30.09,NNE,24,11.0,11.0,38,0.00,,,0.00,Wunderground v.1.15,2013-05-26 19:00:00,
2013-05-26 15:05:00,65.0,39.4,30.09,NNE,20,10.0,13.0,39,0.00,,,0.00,Wunderground v.1.15,2013-05-26 19:05:00,
2013-05-26 15:10:00,65.0,38.8,30.09,North,355,10.0,12.0,38,0.00,,,0.00,Wunderground v.1.15,2013-05-26 19:10:00,
2013-05-26 15:16:00,65.0,38.8,30.08,North,11,11.0,20.0,38,0.00,,,0.00,Wunderground v.1.15,2013-05-26 19:16:00,
2013-05-26 15:21:00,64.9,38.7,30.08,North,355,11.0,12.0,38,0.00,,,0.00,Wunderground v.1.15,2013-05-26 19:21:00,
2013-05-26 15:26:00,65.0,38.8,30.08,NNE,26,12.0,22.0,38,0.00,,,0.00,Wunderground v.1.15,2013-05-26 19:26:00,
2013-05-26 15:32:00,65.0,39.4,30.09,NNW,346,11.0,14.0,39,0.00,,,0.00,Wunderground v.1.15,2013-05-26 19:32:00,
2013-05-26 15:37:00,65.2,40.3,30.08,NNW,343,12.0,15.0,40,0.00,,,0.00,Wunderground v.1.15,2013-05-26 19:37:00,
2013-05-26 15:43:00,65.6,39.3,30.08,NW,325,10.0,13.0,38,0.00,,,0.00,Wunderground v.1.15,2013-05-26 19:43:00,
2013-05-26 15:49:00,65.7,39.4,30.08,NNW,344,9.0,13.0,38,0.00,,,0.00,Wunderground v.1.15,2013-05-26 19:49:00,
2013-05-26 15:55:00,66.2,39.1,30.08,NNW,345,9.0,16.0,37,0.00,,,0.00,Wunderground v.1.15,2013-05-26 19:55:00,
2013-05-26 16:01:00,65.8,38.8,30.08,NNE,13,9.0,9.0,37,0.00,,,0.00,Wunderground v.1.15,2013-05-26 20:01:00,
2013-05-26 16:07:00,66.3,37.8,30.08,NNE,16,9.0,12.0,35,0.00,,,0.00,Wunderground v.1.15,2013-05-26 20:07:00,
2013-05-26 16:13:00,66.3,39.2,30.08,NNE,16,10.0,12.0,37,0.00,,,0.00,Wunderground v.1.15,2013-05-26 20:13:00,
2013-05-26 16:18:00,66.4,40.0,30.08,NNE,29,9.0,12.0,38,0.00,,,0.00,Wunderground v.1.15,2013-05-26 20:18:00,
2013-05-26 16:23:00,66.7,39.6,30.08,NNW,330,8.0,12.0,37,0.00,,,0.00,Wunderground v.1.15,2013-05-26 20:23:00,
2013-05-26 16:32:00,67.0,38.4,30.07,NNE,24,8.0,9.0,35,0.00,,,0.00,Wunderground v.1.15,2013-05-26 20:32:00,
2013-05-26 16:37:00,67.2,38.6,30.07,North,10,7.0,12.0,35,0.00,,,0.00,Wunderground v.1.15,2013-05-26 20:37:00,
2013-05-26 16:43:00,67.2,38.6,30.07,NE,40,8.0,11.0,35,0.00,,,0.00,Wunderground v.1.15,2013-05-26 20:43:00,
2013-05-26 16:49:00,67.4,37.3,30.07,NNW,341,8.0,11.0,33,0.00,,,0.00,Wunderground v.1.15,2013-05-26 20:49:00,
2013-05-26 16:54:00,67.5,39.6,30.07,NNW,345,8.0,11.0,36,0.00,,,0.00,Wunderground v.1.15,2013-05-26 20:54:00,
2013-05-26 17:00:00,67.6,39.0,30.07,NW,320,9.0,9.0,35,0.00,,,0.00,Wunderground v.1.15,2013-05-26 21:00:00,
2013-05-26 17:05:00,67.4,38.0,30.07,North,9,10.0,10.0,34,0.00,,,0.00,Wunderground v.1.15,2013-05-26 21:05:00,
2013-05-26 17:11:00,67.6,39.0,30.07,NNW,332,7.0,9.0,35,0.00,,,0.00,Wunderground v.1.15,2013-05-26 21:11:00,
2013-05-26 17:16:00,67.7,38.3,30.07,NNE,18,8.0,15.0,34,0.00,,,0.00,Wunderground v.1.15,2013-05-26 21:16:00,
2013-05-26 17:21:00,67.6,37.5,30.07,NNE,12,10.0,10.0,33,0.00,,,0.00,Wunderground v.1.15,2013-05-26 21:21:00,
2013-05-26 17:26:00,67.4,36.5,30.07,NNE,25,10.0,14.0,32,0.00,,,0.00,Wunderground v.1.15,2013-05-26 21:26:00,
2013-05-26 17:32:00,67.4,35.7,30.07,NNE,17,9.0,9.0,31,0.00,,,0.00,Wunderground v.1.15,2013-05-26 21:32:00,
2013-05-26 17:37:00,67.4,36.5,30.07,NNE,13,8.0,12.0,32,0.00,,,0.00,Wunderground v.1.15,2013-05-26 21:37:00,
2013-05-26 17:42:00,67.6,37.5,30.07,NNE,30,8.0,9.0,33,0.00,,,0.00,Wunderground v.1.15,2013-05-26 21:42:00,
2013-05-26 17:48:00,67.7,39.8,30.07,NNW,344,9.0,12.0,36,0.00,,,0.00,Wunderground v.1.15,2013-05-26 21:48:00,
2013-05-26 17:53:00,67.6,36.7,30.08,NNE,31,9.0,11.0,32,0.00,,,0.00,Wunderground v.1.15,2013-05-26 21:53:00,
2013-05-26 17:59:00,67.3,36.4,30.07,NE,51,9.0,13.0,32,0.00,,,0.00,Wunderground v.1.15,2013-05-26 21:59:00,
2013-05-26 18:04:00,67.2,35.5,30.08,North,350,10.0,13.0,31,0.00,,,0.00,Wunderground v.1.15,2013-05-26 22:04:00,
2013-05-26 18:09:00,67.3,37.2,30.08,North,11,8.0,13.0,33,0.00,,,0.00,Wunderground v.1.15,2013-05-26 22:09:00,
2013-05-26 18:14:00,67.5,37.4,30.08,North,11,7.0,10.0,33,0.00,,,0.00,Wunderground v.1.15,2013-05-26 22:14:00,
2013-05-26 18:20:00,67.5,38.1,30.08,NNE,24,8.0,11.0,34,0.00,,,0.00,Wunderground v.1.15,2013-05-26 22:20:00,
2013-05-26 18:25:00,67.3,35.6,30.08,NNE,30,8.0,13.0,31,0.00,,,0.00,Wunderground v.1.15,2013-05-26 22:25:00,
2013-05-26 18:32:00,67.3,37.2,30.08,North,9,7.0,8.0,33,0.00,,,0.00,Wunderground v.1.15,2013-05-26 22:32:00,
2013-05-26 18:37:00,67.5,36.6,30.08,North,355,6.0,8.0,32,0.00,,,0.00,Wunderground v.1.15,2013-05-26 22:37:00,
2013-05-26 18:42:00,67.5,36.6,30.08,North,355,6.0,9.0,32,0.00,,,0.00,Wunderground v.1.15,2013-05-26 22:42:00,
2013-05-26 18:48:00,67.4,37.3,30.08,NNE,15,6.0,9.0,33,0.00,,,0.00,Wunderground v.1.15,2013-05-26 22:48:00,
2013-05-26 18:53:00,67.3,37.2,30.08,North,5,6.0,7.0,33,0.00,,,0.00,Wunderground v.1.15,2013-05-26 22:53:00,
2013-05-26 18:59:00,67.3,37.2,30.08,NE,34,6.0,9.0,33,0.00,,,0.00,Wunderground v.1.15,2013-05-26 22:59:00,
2013-05-26 19:05:00,67.1,37.0,30.08,North,350,6.0,10.0,33,0.00,,,0.00,Wunderground v.1.15,2013-05-26 23:05:00,
2013-05-26 19:11:00,66.9,36.1,30.08,NNE,25,6.0,7.0,32,0.00,,,0.00,Wunderground v.1.15,2013-05-26 23:11:00,
2013-05-26 19:17:00,66.8,36.8,30.09,NNW,340,6.0,9.0,33,0.00,,,0.00,Wunderground v.1.15,2013-05-26 23:17:00,
2013-05-26 19:23:00,66.6,35.8,30.09,NNW,338,6.0,7.0,32,0.00,,,0.00,Wunderground v.1.15,2013-05-26 23:23:00,
2013-05-26 19:29:00,66.6,36.6,30.09,NNE,30,4.0,9.0,33,0.00,,,0.00,Wunderground v.1.15,2013-05-26 23:29:00,
2013-05-26 19:35:00,66.5,36.5,30.09,NNE,16,4.0,8.0,33,0.00,,,0.00,Wunderground v.1.15,2013-05-26 23:35:00,
2013-05-26 19:41:00,66.4,36.4,30.09,North,9,3.0,3.0,33,0.00,,,0.00,Wunderground v.1.15,2013-05-26 23:41:00,
2013-05-26 19:47:00,66.3,37.1,30.09,NNW,346,3.0,6.0,34,0.00,,,0.00,Wunderground v.1.15,2013-05-26 23:47:00,
2013-05-26 19:53:00,65.8,38.1,30.10,North,350,3.0,3.0,36,0.00,,,0.00,Wunderground v.1.15,2013-05-26 23:53:00,
2013-05-26 19:59:00,65.6,38.6,30.10,North,350,3.0,4.0,37,0.00,,,0.00,Wunderground v.1.15,2013-05-26 23:59:00,
2013-05-26 20:05:00,65.2,38.3,30.10,NNW,347,3.0,3.0,37,0.00,,,0.00,Wunderground v.1.15,2013-05-27 00:05:00,
2013-05-26 20:11:00,64.7,37.8,30.10,NNW,346,3.0,3.0,37,0.00,,,0.00,Wunderground v.1.15,2013-05-27 00:11:00,
2013-05-26 20:17:00,64.4,38.2,30.10,NNW,346,3.0,4.0,38,0.00,,,0.00,Wunderground v.1.15,2013-05-27 00:17:00,
2013-05-26 20:22:00,64.0,37.9,30.10,NNW,346,3.0,3.0,38,0.00,,,0.00,Wunderground v.1.15,2013-05-27 00:22:00,
2013-05-26 20:28:00,63.7,37.6,30.11,NNW,346,3.0,3.0,38,0.00,,,0.00,Wunderground v.1.15,2013-05-27 00:28:00,
2013-05-26 20:34:00,63.3,38.6,30.10,NNW,344,3.0,3.0,40,0.00,,,0.00,Wunderground v.1.15,2013-05-27 00:34:00,
2013-05-26 20:39:00,63.0,38.9,30.11,NNW,344,2.0,3.0,41,0.00,,,0.00,Wunderground v.1.15,2013-05-27 00:39:00,
2013-05-26 20:45:00,62.5,38.5,30.11,NNW,343,2.0,2.0,41,0.00,,,0.00,Wunderground v.1.15,2013-05-27 00:45:00,
2013-05-26 20:51:00,62.2,38.8,30.11,NNW,340,2.0,2.0,42,0.00,,,0.00,Wunderground v.1.15,2013-05-27 00:51:00,
2013-05-26 20:56:00,61.8,38.4,30.11,NNW,340,2.0,2.0,42,0.00,,,0.00,Wunderground v.1.15,2013-05-27 00:56:00,
2013-05-26 21:02:00,61.7,37.7,30.12,NNW,340,1.0,1.0,41,0.00,,,0.00,Wunderground v.1.15,2013-05-27 01:02:00,
2013-05-26 21:07:00,61.6,37.7,30.12,NNW,340,1.0,2.0,41,0.00,,,0.00,Wunderground v.1.15,2013-05-27 01:07:00,
2013-05-26 21:12:00,61.6,37.7,30.12,NNW,340,2.0,4.0,41,0.00,,,0.00,Wunderground v.1.15,2013-05-27 01:12:00,
2013-05-26 21:18:00,61.6,38.3,30.12,NNW,340,3.0,4.0,42,0.00,,,0.00,Wunderground v.1.15,2013-05-27 01:18:00,
2013-05-26 21:24:00,61.6,38.3,30.13,NNW,340,3.0,5.0,42,0.00,,,0.00,Wunderground v.1.15,2013-05-27 01:24:00,
2013-05-26 21:29:00,61.6,37.7,30.13,NNW,340,4.0,5.0,41,0.00,,,0.00,Wunderground v.1.15,2013-05-27 01:29:00,
2013-05-26 21:35:00,61.7,37.1,30.13,NNW,340,3.0,4.0,40,0.00,,,0.00,Wunderground v.1.15,2013-05-27 01:35:00,
2013-05-26 21:40:00,61.7,37.1,30.13,NNW,340,3.0,4.0,40,0.00,,,0.00,Wunderground v.1.15,2013-05-27 01:40:00,
2013-05-26 21:45:00,61.8,38.4,30.14,NNW,341,4.0,4.0,42,0.00,,,0.00,Wunderground v.1.15,2013-05-27 01:45:00,
2013-05-26 21:51:00,61.7,37.7,30.14,North,5,3.0,3.0,41,0.00,,,0.00,Wunderground v.1.15,2013-05-27 01:51:00,
2013-05-26 21:56:00,61.5,37.6,30.14,North,5,2.0,3.0,41,0.00,,,0.00,Wunderground v.1.15,2013-05-27 01:56:00,
2013-05-26 22:01:00,61.4,36.8,30.14,North,5,1.0,2.0,40,0.00,,,0.00,Wunderground v.1.15,2013-05-27 02:01:00,
2013-05-26 22:07:00,61.2,37.3,30.14,NE,35,2.0,3.0,41,0.00,,,0.00,Wunderground v.1.15,2013-05-27 02:07:00,
2013-05-26 22:13:00,60.8,37.5,30.14,ENE,71,3.0,7.0,42,0.00,,,0.00,Wunderground v.1.15,2013-05-27 02:13:00,
2013-05-26 22:18:00,60.5,37.3,30.15,ENE,69,4.0,7.0,42,0.00,,,0.00,Wunderground v.1.15,2013-05-27 02:18:00,
2013-05-26 22:24:00,60.5,37.3,30.15,ENE,69,4.0,4.0,42,0.00,,,0.00,Wunderground v.1.15,2013-05-27 02:24:00,
2013-05-26 22:31:00,60.4,37.2,30.15,ENE,69,3.0,3.0,42,0.00,,,0.00,Wunderground v.1.15,2013-05-27 02:31:00,
2013-05-26 22:37:00,59.9,36.7,30.16,ENE,67,3.0,5.0,42,0.00,,,0.00,Wunderground v.1.15,2013-05-27 02:37:00,
2013-05-26 22:42:00,59.7,36.6,30.16,ENE,67,3.0,4.0,42,0.00,,,0.00,Wunderground v.1.15,2013-05-27 02:42:00,
2013-05-26 22:48:00,59.8,36.0,30.16,ENE,67,3.0,4.0,41,0.00,,,0.00,Wunderground v.1.15,2013-05-27 02:48:00,
2013-05-26 22:54:00,59.9,35.5,30.16,ENE,71,3.0,5.0,40,0.00,,,0.00,Wunderground v.1.15,2013-05-27 02:54:00,
2013-05-26 22:59:00,59.9,35.5,30.16,East,82,4.0,5.0,40,0.00,,,0.00,Wunderground v.1.15,2013-05-27 02:59:00,
2013-05-26 23:05:00,59.6,35.2,30.16,East,80,4.0,6.0,40,0.00,,,0.00,Wunderground v.1.15,2013-05-27 03:05:00,
2013-05-26 23:10:00,59.5,35.1,30.17,East,97,4.0,4.0,40,0.00,,,0.00,Wunderground v.1.15,2013-05-27 03:10:00,
2013-05-26 23:16:00,59.6,34.6,30.17,East,83,3.0,4.0,39,0.00,,,0.00,Wunderground v.1.15,2013-05-27 03:16:00,
2013-05-26 23:22:00,59.5,35.1,30.17,ENE,74,3.0,4.0,40,0.00,,,0.00,Wunderground v.1.15,2013-05-27 03:22:00,
2013-05-26 23:28:00,59.1,34.8,30.17,ENE,72,4.0,7.0,40,0.00,,,0.00,Wunderground v.1.15,2013-05-27 03:28:00,
2013-05-26 23:34:00,59.1,34.8,30.17,ENE,78,4.0,7.0,40,0.00,,,0.00,Wunderground v.1.15,2013-05-27 03:34:00,
2013-05-26 23:40:00,59.0,34.1,30.17,East,80,5.0,5.0,39,0.00,,,0.00,Wunderground v.1.15,2013-05-27 03:40:00,
2013-05-26 23:46:00,58.6,35.0,30.17,ENE,75,5.0,5.0,41,0.00,,,0.00,Wunderground v.1.15,2013-05-27 03:46:00,
2013-05-26 23:51:00,58.2,35.2,30.18,ENE,75,4.0,4.0,42,0.00,,,0.00,Wunderground v.1.15,2013-05-27 03:51:00,
2013-05-26 23:56:00,58.0,35.0,30.18,ENE,76,3.0,4.0,42,0.00,,,0.00,Wunderground v.1.15,2013-05-27 03:56:00,